Location: B
(0.0000°N, 0.0000°E)
Time: 09:15:43
(UTC+02:00)

ISS - All Passes

Search period start: 29 June 2016 00:00
Search period end: 09 July 2016 00:00
Orbit: 402 x 403 km, 51.6° (Epoch: 28 June)

Date Brightness Start Highest point End Pass type
(mag) Time Alt. Az. Time Alt. Az. Time Alt. Az.
29 Jun - 07:20:33 10° SW 07:23:48 81° WNW 07:27:03 10° NNE visible
29 Jun - 18:54:13 10° NNW 18:57:24 55° NE 19:00:37 10° SE daylight
30 Jun - 06:28:10 10° S 06:31:07 31° SE 06:34:02 10° ENE visible
30 Jun - 18:02:18 10° N 18:04:42 19° NE 18:07:07 10° ESE daylight
30 Jun - 19:39:31 10° W 19:40:56 12° SW 19:42:23 10° SSW daylight
01 Jul - 05:37:01 10° SSE 05:38:23 12° SE 05:39:45 10° ESE visible
01 Jul - 07:12:11 10° WSW 07:14:38 19° NW 07:17:03 10° N visible
01 Jul - 18:45:16 10° WNW 18:48:13 32° SW 18:51:10 10° S daylight
02 Jul - 06:18:42 10° SW 06:21:55 56° NW 06:25:05 10° NNE visible
02 Jul - 17:52:15 10° NNW 17:55:30 79° NE 17:58:46 10° SE daylight
03 Jul - 05:26:04 10° SSW 05:29:11 43° SE 05:32:18 10° NE visible
03 Jul - 17:00:01 10° N 17:02:47 25° NE 17:05:32 10° ESE daylight
04 Jul - 04:34:21 10° SSE 04:36:27 16° SE 04:38:32 10° E night (unlit)
04 Jul - 06:10:46 10° W 06:12:41 15° NW 06:14:36 10° NNW visible
04 Jul - 17:43:34 10° WNW 17:46:16 24° SW 17:48:58 10° S daylight
05 Jul - 05:16:52 10° SW 05:19:56 39° NW 05:23:00 10° NNE visible
05 Jul - 16:50:17 10° NW 16:53:31 73° SW 16:56:46 10° SSE daylight
06 Jul - 04:23:59 10° SSW 04:27:12 61° SE 04:30:25 10° NE night (unlit)
06 Jul - 15:57:47 10° NNW 16:00:47 34° NE 16:03:47 10° ESE daylight
07 Jul - 03:31:55 10° S 03:34:27 21° SE 03:36:59 10° ENE night (unlit)
07 Jul - 05:09:38 10° WNW 05:10:42 11° NW 05:11:44 10° NW night (unlit)
07 Jul - 15:06:25 10° NNE 15:08:01 13° NE 15:09:37 10° E daylight
07 Jul - 16:41:56 10° W 16:44:16 18° SW 16:46:34 10° S daylight
08 Jul - 04:15:03 10° WSW 04:17:55 29° NW 04:20:47 10° N night (unlit)
08 Jul - 15:48:19 10° NW 15:51:29 50° SW 15:54:40 10° SSE daylight
